Location: Unspecified
(50.0000°N, 15.0000°E)
Time: 03:49:31
(UTC+01:00)

ISS - Pass Details

Date: 30 November 2021
Orbit: 413 x 422 km, 51.6° (Epoch: 22 January)

Event Time Altitude Azimuth Distance (km) Brightness Sun altitude
Rises 17:46:50 0° 280° (W) 2,384 1.3 -16.2°
Reaches altitude 10° 17:48:58 10° 283° (WNW) 1,516 0.0 -16.5°
Maximum altitude 17:52:21 68° 7° (N) 462 -3.7 -17.0°
Enters shadow 17:53:05 49° 68° (ENE) 555 -3.6 -17.2°
